Pratica di Mare, Italy

10:34 AM CET on February 27, 2017 (GMT +0100)
Pratica Di Mare Mil

Weather History for LIRE - November, 2012

Change the Weather History Date:

Sunday, November 4, 2012

  Actual Average Record
Temperature  
Mean Temperature 64 °F -  
Max Temperature 68 °F 62 °F 73 °F (2000)
Min Temperature 60 °F 46 °F 37 °F (2006)
Degree Days  
Heating Degree Days 1    
Growing Degree Days 14 (Base 50)    
Moisture  
Dew Point 61 °F    
Average Humidity 86    
Maximum Humidity 94    
Minimum Humidity 70    
Precipitation  
Precipitation 0.03 in 0.15 in - ()
Sea Level Pressure  
Sea Level Pressure 29.88 in    
Wind  
Wind Speed 13 mph ()    
Max Wind Speed 18 mph    
Max Gust Speed -    
Visibility 4.6 miles    
Events Rain    
Averages and records for this station are not official NWS values.
T = Trace of Precipitation, MM = Missing Value Source: Averaged Metar Reports

Daily Weather History Graph

Daily Weather History Graph

Search for Another Location

Airport or City:

Trip Planner

Search our weather history database for the weather conditions in past years. The results will help you decide how hot, cold, wet, or windy it might be!

Date:

Astronomy

Nov. 04, 2012 Rise Set
Actual Time 6:46 AM CET 5:00 PM CET
Civil Twilight 6:17 AM CET 5:30 PM CET
Nautical Twilight 5:44 AM CET 6:02 PM CET
Astronomical Twilight 5:11 AM CET 6:35 PM CET
Moon 9:21 PM CET (11/4) 11:20 AM CET (11/4)
Length of Visible Light 11h 12m
Length of Day
10h 14m
Waning Gibbous, 74% of the Moon is Illuminated
Nov 4
Waning Gibbous
Nov 7
Last Quarter
Nov 13
New
Nov 20
First Quarter
Nov 28
Full

Hourly Weather History & Observations

Time (CET) Temp. Dew Point Humidity Pressure Visibility Wind Dir Wind Speed Gust Speed Precip Events Conditions
12:55 AM 60.8 °F 53.6 °F 77% 30.01 in 6.2 mi SSW 11.5 mph - N/A   Mostly Cloudy
1:00 AM 60 °F 53 °F 70% 30.01 in 6 mi SSW 11.5 mph - -   Mostly Cloudy
1:55 AM 62.6 °F 55.4 °F 77% 30.01 in 6.2 mi ESE 11.5 mph - N/A   Scattered Clouds
2:55 AM 62.6 °F 57.2 °F 82% 29.95 in 6.2 mi ESE 15.0 mph - N/A Rain Light Rain
4:00 AM 63 °F 57 °F 76% 29.97 in 6 mi ESE 15.0 mph - -   Mostly Cloudy
4:55 AM 60.8 °F 59.0 °F 94% 29.92 in 6.2 mi ESE 18.4 mph - N/A Rain Light Rain
5:55 AM 60.8 °F 59.0 °F 94% 29.92 in 6.2 mi ESE 18.4 mph - N/A Rain Light Rain
7:00 AM 61 °F 58 °F 86% 29.93 in 5 mi ESE 18.4 mph - - Rain Light Drizzle
7:55 AM 62.6 °F 59.0 °F 88% 29.95 in 4.3 mi ESE 15.0 mph - N/A Rain Light Rain
8:55 AM 62.6 °F 59.0 °F 88% 29.92 in 5.0 mi ESE 17.3 mph - N/A Rain Light Rain
9:55 AM 64.4 °F 60.8 °F 88% 29.92 in 6.2 mi ESE 15.0 mph - N/A Rain Light Rain
10:55 AM 66.2 °F 62.6 °F 88% 29.92 in 4.3 mi SE 11.5 mph - N/A   Scattered Clouds
11:55 AM 66.2 °F 62.6 °F 88% 29.89 in 3.7 mi ESE 12.7 mph - N/A Rain Light Rain
12:55 PM 66.2 °F 62.6 °F 88% 29.89 in 3.7 mi ESE 11.5 mph - N/A Rain Light Rain
1:00 PM 67 °F 63 °F 83% 29.89 in 4 mi ESE 11.5 mph - - Rain Light Rain
2:55 PM 68.0 °F 64.4 °F 88% 29.83 in 4.3 mi ESE 16.1 mph - N/A   Scattered Clouds
3:55 PM 68.0 °F 64.4 °F 88% 29.83 in 3.7 mi SE 15.0 mph - N/A   Scattered Clouds
4:00 PM 68 °F 64 °F 82% 29.85 in 4 mi SE 15.0 mph - -   Mist
4:55 PM 68.0 °F 64.4 °F 88% 29.83 in 3.7 mi SE 13.8 mph - N/A   Scattered Clouds
5:55 PM 68.0 °F 64.4 °F 88% 29.83 in 3.7 mi SSE 16.1 mph - N/A Rain Light Rain
6:55 PM 68.0 °F 64.4 °F 88% 29.83 in 3.7 mi SE 13.8 mph - N/A   Scattered Clouds
7:00 PM 68 °F 64 °F 83% 29.84 in 4 mi SE 13.8 mph - - Rain Light Rain
7:55 PM 68.0 °F 64.4 °F 88% 29.83 in 3.7 mi SE 15.0 mph - N/A Rain Light Rain
8:55 PM 68.0 °F 64.4 °F 88% 29.80 in 3.7 mi SE 13.8 mph - N/A   Scattered Clouds
9:55 PM 68.0 °F 64.4 °F 88% 29.80 in 4.3 mi SE 15.0 mph - N/A   Scattered Clouds
10:00 PM 68 °F 64 °F 83% 29.80 in 4 mi SE 15.0 mph - -   Mist
10:55 PM 68.0 °F 64.4 °F 88% 29.77 in 3.7 mi SSE 15.0 mph - N/A Rain Light Rain
11:55 PM 68.0 °F 64.4 °F 88% 29.77 in 3.7 mi SE 16.1 mph - N/A Rain Light Rain